Weather in Majna

Russia / Republic of Khakassia     53°00′01″N   91°28′51″E
temp.,
°C
wind,
m/s
gust,
m/s
humid.,
%
clouds,
%
prec.,
mm/h
press.,
hPa
HPBL,
m
11 april, sun
sun1101:00−4sw119339 2.8 104010
04:00−5s119438 0.0 104114
07:00−5ssw229229 0.0 104343
10:00+1nnw11694 0.0 1042676
13:00+3nne11603 0.0 1040845
16:00+5nne116085 0.0 1038854
19:00+1e1192100 0.0 103910
22:00−1s2292100 0.0 103921
12 april, mon
mon1201:00−1s229294 0.0 103824
04:00−3s229189 0.0 103724
07:00−2s228653 0.0 103737
10:00+6sw0263100 0.0 1034418
13:00+9nw1350100 0.0 1031889
16:00+10wsw1347100 0.0 1029904
19:00+7s228197 0.0 102924
22:00+5s3381100 0.0 102942
13 april, tue
tue1301:00+4ssw3383100 0.0 102750
04:00+2ssw338093 0.0 102639
07:00+3sw2281100 0.1 102735
10:00+5wnw2570100 0.7 1027879
13:00+4wnw3676100 1.1 1028964
16:00+3nnw2296100 2.3 1028411
19:00+1wnw1299100 6.0 1030132
22:00−1wsw2697100 5.0 1033396
14 april, wed
wed1401:00−1sw2491100 6.4 1033136
04:00−1ssw3488100 0.1 1032144
07:00+1sw3983100 0.3 1032676
10:00+1sw3886100 0.9 1031916
13:00+3wsw41081100 2.3 10291154
16:00+3sw3888100 1.1 1028851
19:00+2sw3896100 4.4 1028502
22:00+2sw3592100 1.7 1027190
15 april, thu
thu1501:00+2sw2492100 1.9 1026127
04:00+1ssw2491100 0.1 102567
07:00+2sw2688100 0.2 1025240
10:00+3ssw4892100 2.7 1024533
13:00+5ssw3686100 3.1 1022551
16:00+7ssw258096 0.1 1021881
19:00+5ssw349452 0.1 102172
22:00+3s3290100 0.0 102238